Weather Roundup
Issued by NWS

Home | Current Version | Previous Version | Graphics & Text | Print | Product List | Glossary Off
Versions: 1 2 3 4 5 6 7 8 9 10 11 12 13 14 15 16 17 18 19 20 21 22 23 24 25 26 27 28 29 30 31 32 33 34 35 36 37 38 39 40 41 42 43 44 45 46 47 48 49 50

632
NZUS93 KARX 181810
HRRWXR

CURRENT HOURLY OBSERVATIONS ACROSS
MUCH OF THE UPPER MISSISSIPPI VALLEY
NATIONAL WEATHER SERVICE LA CROSSE WI
100 PM CDT FRI AUG 18 2017


...SOUTHEAST MINNESOTA...


CITY           SKY/WX    TMP DP  RH WIND       PRES   REMARKS
ROCHESTER      CLOUDY    64  62  93 W9        29.94R
ROCHESTER/MAYO CLOUDY    64  63  94 W8        29.92S
WINONA         CLOUDY    70  61  73 N3        29.89F
AUSTIN         DRIZZLE   64  61  88 W3        29.94S
ALBERT LEA     CLOUDY    66  64  94 NW5       29.95S
DODGE CENTER   CLOUDY    63  61  94 NW8       29.93S
PRESTON        CLOUDY    65  60  81 W7        29.94R
OWATONNA       LGT RAIN  64  61  88 W7        29.94S
FARIBAULT      LGT RAIN  64  63  94 SW3       29.94S
$$

...ELSEWHERE IN MINNESOTA...


CITY           SKY/WX    TMP DP  RH WIND       PRES   REMARKS
MINNEAPOLIS    RAIN      65  61  87 SW8       29.92R
INTNL FALLS    SUNNY     76  58  53 NW6       29.82F
DULUTH         CLOUDY    69  61  75 VRB5      29.86F
RED WING       CLOUDY    68  63  83 W9        29.90S
REDWOOD FALLS  CLOUDY    70  63  78 S6        29.92F
MANKATO        LGT RAIN  66  61  84 S7        29.94F
WORTHINGTON    SUNNY     74  60  61 CALM      29.94F
FAIRMONT       MOSUNNY   71  61  70 VRB3      29.95S
$$

...SOUTHWEST WISCONSIN...


CITY           SKY/WX    TMP DP  RH WIND       PRES   REMARKS
LA CROSSE      LGT RAIN  73  61  65 NW8       29.88F
PRAIRIE DU CHI CLOUDY    74  56  52 W3        29.89S
BOSCOBEL       CLOUDY    74  61  63 VRB6      29.88F
LONE ROCK      PTSUNNY   74  61  63 NW7       29.87F
PLATTEVILLE    CLOUDY    72  62  72 NW6       29.90F
FORT MC COY    CLOUDY    68  60  75 W6        29.90F
CAMP DOUGLAS   CLOUDY    70  59  68 W15G23    29.88R
MAUSTON-NEW LI CLOUDY    71  60  67 NW9G20    29.87S
VIROQUA        MOCLDY    68  60  73 NW9       29.91F
WIS DELLS      CLOUDY    73  55  53 W13       29.87S
$$

...ELSEWHERE IN WISCONSIN...


CITY           SKY/WX    TMP DP  RH WIND       PRES   REMARKS
MILWAUKEE      PTSUNNY   74  59  59 NW8       29.84F
MADISON        PTSUNNY   74  59  59 W8        29.86S
GREEN BAY      CLOUDY    73  63  70 NW10G18   29.79F
EAU CLAIRE     PTSUNNY   71  61  70 W9        29.87F
BLACK RVR FLS  MOCLDY    70  58  66 W7        29.88S
MEDFORD        CLOUDY    67  58  73 W10       29.87R
WAUSAU         CLOUDY    67  57  70 NW13      29.83R
WIS RAPIDS     CLOUDY    71  59  65 NW10      29.87R
MARSHFIELD     CLOUDY    69  57  65 W14       29.86S
RICE LAKE      CLOUDY    69  62  77 NW6       29.90S
$$

...NORTHEAST IOWA...


CITY           SKY/WX    TMP DP  RH WIND       PRES   REMARKS
WATERLOO       CLOUDY    75  55  49 CALM      29.92F
DUBUQUE        MOSUNNY   74  59  59 NW9       29.92S
DECORAH        CLOUDY    70  61  73 VRB5      29.91F
MASON CITY     CLOUDY    70  62  76 NW5       29.96F
CHARLES CITY   CLOUDY    70  61  73 W7        29.95S
OELWEIN        PTSUNNY   73  63  68 VRB7      29.94S
$$

...ELSEWHERE IN IOWA...


CITY           SKY/WX    TMP DP  RH WIND       PRES   REMARKS
DES MOINES     CLOUDY    84  63  49 S9        29.89F
IOWA CITY      MOSUNNY   79  62  56 S5        29.93F
FORT DODGE     MOSUNNY   75  63  64 NE5       29.94F
MARSHALLTOWN   MOSUNNY   76  64  66 E7        29.92F
CEDAR RAPIDS   SUNNY     77  60  55 SW3       29.92F
$$

...NORTHERN ILLINOIS...


CITY           SKY/WX    TMP DP  RH WIND       PRES   REMARKS
CHICAGO-OHARE  PTSUNNY   78  60  53 W9G20     29.87F
CHICAGO-MIDWAY PTSUNNY   78  60  53 W12G21    29.87F
MOLINE         CLOUDY    80  62  54 SW5       29.91F
ROCKFORD       PTSUNNY   76  62  62 W8        29.90S
PEORIA         SUNNY     83  62  49 W8G17     29.92F
$$

NOTE: "FAIR" INDICATES FEW OR NO CLOUDS BELOW 12,000 FEET WITH NO
SIGNIFICANT WEATHER AND/OR OBSTRUCTIONS TO VISIBILITY. WIND
SPEEDS ARE IN MILES-PER-HOUR.




USA.gov is the U.S. government's official web portal to all federal, state and local government web resources and services.